Location: Huberhof
(49.2050°N, 7.4980°E)
Time: 01:17:22
(UTC+00:00)

CZ-2C R/B - Pass Details

Date: 29 October 2020
Orbit: 703 x 909 km, 98.1° (Epoch: 26 November)

Event Time Altitude Azimuth Distance (km) Brightness Sun altitude
Rises 17:35:53 0° 151° (SSE) 3,519 6.2 -14.0°
Reaches altitude 10° 17:38:20 10° 147° (SSE) 2,571 5.4 -14.4°
Maximum altitude 17:43:58 58° 70° (ENE) 1,024 3.3 -15.3°
Drops below altitude 10° 17:49:25 10° 353° (N) 2,493 5.7 -16.2°
Sets 17:51:47 0° 350° (N) 3,403 6.5 -16.6°
